Location: Castrojimeno
(41.3966°N, 3.8473°W)
Time: 12:29:49
(UTC+00:00)

Cosmos 1461 - Pass Details

Date: 15 May 2026
Orbit: 422 x 476 km, 65.0° (Epoch: 8 June)

Event Time Altitude Azimuth Distance (km) Brightness Sun altitude
Rises 21:17:37 0° 230° (SW) 2,532 6.2 -17.4°
Reaches altitude 10° 21:19:51 10° 238° (WSW) 1,656 5.4 -17.6°
Maximum altitude 21:23:19 37° 308° (NW) 761 4.1 -18.1°
Drops below altitude 10° 21:26:47 10° 17° (NNE) 1,656 5.7 -18.5°
Sets 21:29:02 0° 26° (NNE) 2,531 6.5 -18.8°
